Вернуться в каталог

STARLINK-35887

АктивенСвязьVLEO
NORAD 66959·PAYLOAD·🇺🇸 United States

Запущен Dec 8, 2025 с Cape Canaveral Space Force Station

Loading…

Ближайшие Пролёты (ближайшие 24 часа)

TLE

СвежийSource: CelesTrak SupGP

Эпоха: Sep 14, 2026, 21:00 UTC

1 66959C 25288A   26257.87548611  .00048663  00000+0  17629-2 0  2572
2 66959  43.0026  34.9310 0001351 277.7334  29.8795 15.27547420    13

Отслеживайте STARLINK-35887 в реальном времени с AllMySat

Download on the App Store